Content
SEND FEEDBACK

Daily
Averages
Monthly
Summary
United Kingdom

ASTON, ENGLAND


Home > Europe > United Kingdom > England
Elevation: 364 feet     Latitude: 52 30N     Longitude: 001 54W

WEATHER
 
SELECT A DAY
Number of Records: 280,607;   Date Range: 7/1/96 - 7/31/14
 
SHARE

PRINT THIS DATA

[ ← Previous Day ]
WEATHER ALMANAC - OCTOBER 29, 2013
[ Next Day → ]
[ °C ]   °F
Weather ElementAverageHighLow
Temperature47.1 °F51.8 °F (11:50 am)42.8 °F (9:50 pm)
Dewpoint41.7 °F44.6 °F (4:50 am)39.2 °F (11:50 am)
Humidity82 %93 % (4:50 am)62 % (11:50 am)
Barometer29.80 in30.01 in (9:50 pm)29.53 in (12:50 am)
Wind Speed11.1 mph17.3 mph (1:50 pm)
Weather ElementAverage
Visibility6.2 mi
Wind DirectionWSW (247.4 °)

Weather ElementTotal
Precipitation---
Heating Degree Days17.7 (Base 65)
Averaged from 47 records on October 29, 2013
WEATHER CONDITIONS BREAKOUT
WIND DIRECTION BREAKOUT
WEATHER BY HOUR - OCTOBER 29, 2013
[ °C ]   °F
Local TimeTemperatureDewpointHumidityBarometerVisibilityWind DirectionWind SpeedGust SpeedPrecipitationEventsConditions
12:50 AM46.4 °F42.8 °F87 %29.53 inSW (230°)10.4 mphClear
1:20 AM46.4 °F42.8 °F87 %29.53 inSW (220°)9.2 mphClear
1:50 AM46.4 °F42.8 °F87 %29.56 in6.2 miSW (230°)12.7 mph
2:20 AM46.4 °F42.8 °F87 %29.56 in6.2 miSW (230°)13.8 mph
2:50 AM46.4 °F42.8 °F87 %29.56 in6.2 miSW (230°)11.5 mph
3:20 AM46.4 °F42.8 °F87 %29.59 inSW (230°)9.2 mphClear
3:50 AM46.4 °F42.8 °F87 %29.59 in6.2 miSW (230°)9.2 mphPartly Cloudy
4:20 AM46.4 °F42.8 °F87 %29.62 in6.2 miWSW (240°)10.4 mphPartly Cloudy
4:50 AM46.4 °F44.6 °F93 %29.62 in6.2 miWSW (240°)8.1 mphMostly Cloudy
5:20 AM46.4 °F42.8 °F87 %29.65 in6.2 miWSW (240°)9.2 mphPartly Cloudy
5:50 AM44.6 °F42.8 °F93 %29.65 inWSW (240°)9.2 mphClear
6:20 AM44.6 °F42.8 °F93 %29.68 inWSW (240°)8.1 mphClear
6:50 AM44.6 °F42.8 °F93 %29.68 inSW (230°)9.2 mphClear
7:20 AM44.6 °F42.8 °F93 %29.71 in6.2 miSW (230°)8.1 mphPartly Cloudy
7:50 AM46.4 °F44.6 °F93 %29.71 in6.2 miWSW (250°)9.2 mphPartly Cloudy
8:20 AM48.2 °F44.6 °F87 %29.74 in6.2 miWest (260°)12.7 mphPartly Cloudy
8:50 AM48.2 °F44.6 °F87 %29.74 inWest (260°)11.5 mphClear
9:20 AM48.2 °F44.6 °F87 %29.77 inWest (270°)10.4 mphClear
9:50 AM50.0 °F42.8 °F76 %29.77 in6.2 miWest (270°)13.8 mph
10:20 AM50.0 °F41.0 °F71 %29.80 in6.2 miWest (280°)15.0 mphScattered Clouds
10:50 AM50.0 °F41.0 °F71 %29.80 in6.2 miWest (280°)15.0 mphMostly Cloudy
11:20 AM50.0 °F41.0 °F71 %29.83 in6.2 miWest (280°)12.7 mphScattered Clouds
11:50 AM51.8 °F39.2 °F62 %29.83 in6.2 miWest (260°)15.0 mphScattered Clouds
12:20 PM51.8 °F39.2 °F62 %29.83 in6.2 miWest (260°)16.1 mphMostly Cloudy
12:50 PM50.0 °F39.2 °F66 %29.83 in6.2 miWest (270°)13.8 mphScattered Clouds
1:20 PM51.8 °F39.2 °F62 %29.83 in6.2 miWest (270°)15.0 mphMostly Cloudy
1:50 PM51.8 °F39.2 °F62 %29.86 in6.2 miWest (280°)17.3 mphMostly Cloudy
2:20 PM51.8 °F39.2 °F62 %29.86 in6.2 miWest (280°)16.1 mphPartly Cloudy
2:50 PM48.2 °F42.8 °F82 %29.86 in6.2 miWSW (250°)12.7 mphRainLight Rain Showers
3:20 PM50.0 °F41.0 °F71 %29.86 in6.2 miWest (280°)13.8 mphScattered Clouds
3:50 PM50.0 °F41.0 °F71 %29.89 in6.2 miWest (260°)12.7 mphPartly Cloudy
4:20 PM48.2 °F41.0 °F76 %29.89 in6.2 miWest (270°)12.7 mphPartly Cloudy
4:50 PM48.2 °F41.0 °F76 %29.89 in6.2 miWest (270°)13.8 mphPartly Cloudy
5:20 PM46.4 °F41.0 °F81 %29.92 inWest (260°)9.2 mphClear
5:50 PM46.4 °F41.0 °F81 %29.92 inWSW (240°)8.1 mphClear
6:20 PM46.4 °F41.0 °F81 %29.92 in6.2 miWSW (240°)8.1 mphPartly Cloudy
6:50 PM46.4 °F41.0 °F81 %29.95 in6.2 miWSW (240°)8.1 mphScattered Clouds
7:20 PM46.4 °F41.0 °F81 %29.95 in6.2 miWSW (240°)10.4 mphScattered Clouds
7:50 PM44.6 °F41.0 °F87 %29.95 in6.2 miWSW (240°)9.2 mphPartly Cloudy
8:20 PM44.6 °F41.0 °F87 %29.98 inSW (230°)9.2 mphClear
8:50 PM44.6 °F41.0 °F87 %29.98 in6.2 miSW (230°)9.2 mphPartly Cloudy
9:20 PM44.6 °F41.0 °F87 %29.98 inSW (230°)8.1 mphClear
9:50 PM42.8 °F41.0 °F93 %30.01 inSW (230°)9.2 mphClear
10:20 PM42.8 °F41.0 °F93 %30.01 inSW (230°)9.2 mphClear
10:50 PM42.8 °F39.2 °F87 %30.01 inSSW (210°)6.9 mphClear
11:20 PM42.8 °F41.0 °F93 %30.01 inSW (220°)9.2 mphClear
11:50 PM42.8 °F41.0 °F93 %30.01 inSW (230°)8.1 mphClear
Hourly data recorded from EGBB, located miles away from Aston, England







STORIES FROM OUR PARTNERS